Pella, IA

1:32 PM CST on February 19, 2017 (GMT -0600)
Pella Municipal

Weather History for KPEA - March, 2014

Change the Weather History Date:

Saturday, March 22, 2014

  Actual Average (KOXV) Record (KOXV)
Temperature  
Mean Temperature 29 °F -  
Max Temperature 36 °F 53 °F 83 °F (1988)
Min Temperature 22 °F 29 °F 12 °F (2002)
Degree Days  
Heating Degree Days 36    
Moisture  
Dew Point 16 °F    
Average Humidity 62    
Maximum Humidity 81    
Minimum Humidity 38    
Precipitation  
Precipitation 0.00 in - - ()
Sea Level Pressure  
Sea Level Pressure 30.32 in    
Wind  
Wind Speed 15 mph (NNW)    
Max Wind Speed 23 mph    
Max Gust Speed 29 mph    
Visibility 10 miles    
Events      
Averages and records for this station are not official NWS values.
T = Trace of Precipitation, MM = Missing Value Source: NWS Daily Summary

Daily Weather History Graph

Daily Weather History Graph

Search for Another Location

Airport or City:

Trip Planner

Search our weather history database for the weather conditions in past years. The results will help you decide how hot, cold, wet, or windy it might be!

Date:

Astronomy

Mar. 22, 2014 Rise Set
Actual Time 7:11 AM CDT 7:26 PM CDT
Civil Twilight 6:44 AM CDT 7:53 PM CDT
Nautical Twilight 6:11 AM CDT 8:26 PM CDT
Astronomical Twilight 5:38 AM CDT 8:59 PM CDT
Moon 12:49 AM CDT (3/22) 10:52 AM CDT (3/22)
Length of Visible Light 13h 09m
Length of Day
12h 14m
Waning Gibbous, 65% of the Moon is Illuminated
Mar 22
Waning Gibbous
Mar 23
Last Quarter
Mar 30
New
Apr 7
First Quarter
Apr 15
Full

Hourly Weather History & Observations

Time (CDT) Temp. Windchill Dew Point Humidity Pressure Visibility Wind Dir Wind Speed Gust Speed Precip Events Conditions
12:15 AM 32.9 °F 24.1 °F 26.2 °F 76% 30.14 in 10.0 mi NNW 11.5 mph - N/A   Overcast
12:35 AM 32.5 °F 22.3 °F 26.2 °F 78% 30.15 in 10.0 mi NNW 15.0 mph 25.3 mph N/A   Overcast
12:55 AM 32.0 °F 20.8 °F 25.3 °F 76% 30.15 in 10.0 mi North 17.3 mph 26.5 mph N/A   Overcast
1:15 AM 32.0 °F 20.1 °F 25.7 °F 78% 30.16 in 10.0 mi NNW 19.6 mph 25.3 mph N/A   Overcast
1:35 AM 31.6 °F 18.7 °F 25.0 °F 76% 30.16 in 10.0 mi NNW 23.0 mph 28.8 mph N/A   Overcast
1:55 AM 31.3 °F 20.3 °F 25.3 °F 79% 30.17 in 10.0 mi NNW 16.1 mph - N/A   Overcast
2:15 AM 30.7 °F 18.5 °F 24.3 °F 77% 30.18 in 10.0 mi NNW 19.6 mph 26.5 mph N/A   Overcast
2:35 AM 30.6 °F 19.4 °F 24.3 °F 77% 30.19 in 10.0 mi NW 16.1 mph 20.7 mph N/A   Overcast
2:55 AM 28.9 °F 17.3 °F 22.5 °F 77% 30.19 in 10.0 mi NNW 16.1 mph 23.0 mph N/A   Mostly Cloudy
3:15 AM 27.9 °F 15.5 °F 21.2 °F 76% 30.19 in 10.0 mi NW 17.3 mph 26.5 mph N/A   Mostly Cloudy
3:35 AM 27.1 °F 14.5 °F 20.3 °F 75% 30.19 in 10.0 mi NNW 17.3 mph 24.2 mph N/A   Clear
3:55 AM 25.9 °F 16.6 °F 20.8 °F 81% 30.20 in 10.0 mi NW 9.2 mph - N/A   Clear
4:15 AM 25.5 °F 14.9 °F 20.3 °F 81% 30.22 in 10.0 mi NW 11.5 mph 16.1 mph N/A   Clear
4:35 AM 25.5 °F 14.3 °F 19.4 °F 78% 30.23 in 10.0 mi NW 12.7 mph - N/A   Clear
4:55 AM 24.8 °F 12.4 °F 18.9 °F 78% 30.22 in 10.0 mi NNW 15.0 mph 20.7 mph N/A   Clear
5:15 AM 24.6 °F 11.7 °F 18.5 °F 78% 30.24 in 10.0 mi NW 16.1 mph 21.9 mph N/A   Clear
5:35 AM 23.9 °F 12.9 °F 18.1 °F 79% 30.25 in 10.0 mi NW 11.5 mph - N/A   Clear
5:55 AM 23.5 °F 9.9 °F 17.8 °F 79% 30.26 in 10.0 mi NNW 17.3 mph 20.7 mph N/A   Scattered Clouds
6:15 AM 23.2 °F 10.3 °F 16.7 °F 76% 30.27 in 10.0 mi NW 15.0 mph 21.9 mph N/A   Clear
6:35 AM 23.0 °F 11.1 °F 16.7 °F 77% 30.26 in 10.0 mi NNW 12.7 mph - N/A   Clear
6:55 AM 22.8 °F 9.9 °F 16.5 °F 77% 30.26 in 10.0 mi NNW 15.0 mph 21.9 mph N/A   Clear
7:15 AM 22.5 °F 9.9 °F 16.3 °F 77% 30.27 in 10.0 mi NNW 13.8 mph 19.6 mph N/A   Clear
7:35 AM 22.5 °F 8.9 °F 15.4 °F 74% 30.28 in 10.0 mi NNW 16.1 mph 23.0 mph N/A   Clear
7:55 AM 22.6 °F 7.9 °F 15.3 °F 73% 30.30 in 10.0 mi NNW 19.6 mph 26.5 mph N/A   Clear
8:15 AM 22.8 °F 9.4 °F 14.9 °F 72% 30.31 in 10.0 mi NNW 16.1 mph 26.5 mph N/A   Clear
8:35 AM 23.7 °F 9.7 °F 15.1 °F 70% 30.31 in 10.0 mi NNW 18.4 mph 25.3 mph N/A   Clear
8:55 AM 24.1 °F 11.0 °F 14.9 °F 68% 30.32 in 10.0 mi North 16.1 mph 23.0 mph N/A   Clear
9:15 AM 25.5 °F 13.8 °F 16.3 °F 68% 30.34 in 10.0 mi NNW 13.8 mph 18.4 mph N/A   Scattered Clouds
9:35 AM 25.3 °F 12.6 °F 15.3 °F 66% 30.34 in 10.0 mi NNW 16.1 mph 21.9 mph N/A   Scattered Clouds
9:55 AM 26.1 °F 13.6 °F 15.6 °F 65% 30.35 in 10.0 mi NNW 16.1 mph - N/A   Clear
10:15 AM 25.7 °F 13.1 °F 15.3 °F 65% 30.35 in 10.0 mi NNW 16.1 mph - N/A   Clear
10:35 AM 26.6 °F 14.3 °F 15.6 °F 63% 30.36 in 10.0 mi NNW 16.1 mph 23.0 mph N/A   Clear
10:55 AM 27.5 °F 16.3 °F 15.3 °F 60% 30.36 in 10.0 mi NNW 13.8 mph 23.0 mph N/A   Clear
11:15 AM 28.8 °F 17.5 °F 15.4 °F 58% 30.35 in 10.0 mi NNW 15.0 mph 19.6 mph N/A   Clear
11:35 AM 30.7 °F 20.4 °F 15.8 °F 54% 30.36 in 10.0 mi NNW 13.8 mph 19.6 mph N/A   Clear
11:55 AM 30.4 °F 19.5 °F 15.4 °F 54% 30.36 in 10.0 mi NNW 15.0 mph 21.9 mph N/A   Clear
12:15 PM 31.8 °F 21.0 °F 15.8 °F 52% 30.36 in 10.0 mi NNW 16.1 mph 20.7 mph N/A   Clear
12:35 PM 32.0 °F 22.1 °F 14.4 °F 48% 30.36 in 10.0 mi NNW 13.8 mph 19.6 mph N/A   Clear
12:55 PM 32.9 °F 23.7 °F 13.6 °F 45% 30.37 in 10.0 mi NW 12.7 mph 19.6 mph N/A   Clear
1:15 PM 33.4 °F 24.3 °F 14.0 °F 45% 30.36 in 10.0 mi NNW 12.7 mph 20.7 mph N/A   Clear
1:35 PM 33.8 °F 24.8 °F 13.5 °F 43% 30.36 in 10.0 mi NNW 12.7 mph 20.7 mph N/A   Clear
1:55 PM 33.6 °F 23.3 °F 13.3 °F 43% 30.36 in 10.0 mi NNW 16.1 mph 19.6 mph N/A   Clear
2:15 PM 34.0 °F 24.6 °F 12.2 °F 41% 30.35 in 10.0 mi North 13.8 mph 21.9 mph N/A   Clear
2:35 PM 36.0 °F 26.7 °F 12.9 °F 39% 30.35 in 10.0 mi NNW 15.0 mph 19.6 mph N/A   Clear
2:55 PM 35.1 °F 24.8 °F 11.7 °F 38% 30.35 in 10.0 mi North 17.3 mph 23.0 mph N/A   Clear
3:15 PM 35.6 °F 25.2 °F 12.7 °F 39% 30.35 in 10.0 mi NNW 18.4 mph 25.3 mph N/A   Clear
3:35 PM 34.5 °F 24.1 °F 12.4 °F 40% 30.36 in 10.0 mi North 17.3 mph 24.2 mph N/A   Clear
3:55 PM 34.0 °F 23.8 °F 13.1 °F 42% 30.36 in 10.0 mi NNW 16.1 mph 26.5 mph N/A   Clear
4:15 PM 33.3 °F 22.5 °F 13.1 °F 43% 30.36 in 10.0 mi NW 17.3 mph 24.2 mph N/A   Clear
4:35 PM 33.4 °F 22.7 °F 12.9 °F 43% 30.37 in 10.0 mi North 17.3 mph 24.2 mph N/A   Clear
4:55 PM 32.5 °F 21.2 °F 13.6 °F 46% 30.37 in 10.0 mi NNW 18.4 mph 21.9 mph N/A   Clear
5:15 PM 32.0 °F 22.1 °F 14.0 °F 48% 30.36 in 10.0 mi North 13.8 mph 24.2 mph N/A   Clear
5:35 PM 31.6 °F 21.2 °F 13.3 °F 47% 30.37 in 10.0 mi North 15.0 mph 20.7 mph N/A   Clear
5:55 PM 30.7 °F 19.6 °F 12.2 °F 46% 30.36 in 10.0 mi North 16.1 mph 25.3 mph N/A   Clear
6:15 PM 30.0 °F 18.7 °F 12.9 °F 49% 30.37 in 10.0 mi North 16.1 mph 21.9 mph N/A   Clear
6:35 PM 29.3 °F 17.7 °F 13.3 °F 51% 30.37 in 10.0 mi North 16.1 mph 24.2 mph N/A   Clear
6:55 PM 28.8 °F 17.9 °F 13.3 °F 52% 30.38 in 10.0 mi NNW 13.8 mph 18.4 mph N/A   Clear
7:15 PM 28.2 °F 16.3 °F 13.8 °F 55% 30.39 in 10.0 mi North 16.1 mph 20.7 mph N/A   Clear
7:35 PM 27.5 °F 16.8 °F 14.0 °F 57% 30.39 in 10.0 mi North 12.7 mph 17.3 mph N/A   Clear
7:55 PM 27.3 °F 16.1 °F 14.0 °F 57% 30.41 in 10.0 mi NNW 13.8 mph 18.4 mph N/A   Clear
8:15 PM 27.1 °F 15.4 °F 14.7 °F 60% 30.41 in 10.0 mi NNW 15.0 mph 19.6 mph N/A   Clear
8:35 PM 27.0 °F 15.2 °F 14.0 °F 58% 30.42 in 10.0 mi NNW 15.0 mph 20.7 mph N/A   Clear
8:55 PM 26.6 °F 15.7 °F 14.2 °F 60% 30.43 in 10.0 mi North 12.7 mph - N/A   Clear
9:15 PM 26.2 °F 13.8 °F 14.2 °F 60% 30.43 in 10.0 mi North 16.1 mph 19.6 mph N/A   Clear
9:35 PM 25.9 °F 13.8 °F 14.4 °F 62% 30.43 in 10.0 mi North 15.0 mph 20.7 mph N/A   Clear
9:55 PM 25.7 °F 15.7 °F 14.0 °F 61% 30.44 in 10.0 mi North 10.4 mph - N/A   Clear
10:15 PM 25.7 °F 15.1 °F 14.4 °F 62% 30.45 in 10.0 mi North 11.5 mph 16.1 mph N/A   Clear
10:35 PM 25.5 °F 14.3 °F 14.4 °F 63% 30.45 in 10.0 mi North 12.7 mph - N/A   Clear
10:55 PM 25.0 °F 13.1 °F 12.9 °F 60% 30.46 in 10.0 mi North 13.8 mph 20.7 mph N/A   Clear
11:15 PM 24.8 °F 14.6 °F 14.0 °F 64% 30.47 in 10.0 mi North 10.4 mph - N/A   Clear
11:35 PM 24.8 °F 16.1 °F 14.0 °F 64% 30.48 in 10.0 mi NNW 8.1 mph - N/A   Clear
11:55 PM 24.6 °F 13.8 °F 14.0 °F 64% 30.48 in 10.0 mi North 11.5 mph 16.1 mph N/A   Clear